Location: Unspecified
(0.0000°N, 0.0000°E)
Time: 21:42:43
(UTC+00:00)

DMSP 5D-2 F13 DEB - Visible Passes

Search period start: 09 June 2026 00:00
Search period end: 19 June 2026 00:00
Orbit: 775 x 786 km, 98.6° (Epoch: 6 June)

Date Brightness Start Highest point End Pass type
(mag) Time Alt. Az. Time Alt. Az. Time Alt. Az.
9 Jun ? 19:49:03 21° SSW 19:52:12 46° WSW 19:57:04 10° NNW visible
10 Jun ? 19:16:17 19° SSE 19:19:57 70° ENE 19:25:02 10° N visible
11 Jun ? 18:43:31 11° SE 18:47:41 28° ENE 18:52:00 10° NNE visible
11 Jun ? 20:24:03 12° SW 20:26:41 17° WSW 20:30:00 10° WNW visible
12 Jun ? 19:51:17 20° SSW 19:54:27 43° WSW 19:59:17 10° NNW visible
13 Jun ? 19:18:31 19° SSE 19:22:11 75° ENE 19:27:17 10° N visible
14 Jun ? 18:45:44 11° SE 18:49:55 29° ENE 18:54:18 10° NNE visible
14 Jun ? 20:26:15 12° SW 20:28:54 16° WSW 20:32:03 10° WNW visible
15 Jun ? 19:53:28 19° SSW 19:56:40 41° WSW 20:01:26 10° NNW visible
16 Jun ? 19:20:40 19° SSE 19:24:23 79° ENE 19:29:30 10° N visible
17 Jun ? 18:47:53 11° SE 18:52:06 31° ENE 18:56:34 10° NNE visible
17 Jun ? 20:28:23 11° SW 20:31:05 16° WSW 20:34:02 10° WNW visible
18 Jun ? 19:55:35 19° SSW 19:58:49 38° WSW 20:03:33 10° NW visible
